Location: Newark
(52.4787°S, 179.0532°W)
Time: 18:36:02
(UTC+00:00)

Vanguard 1 - Pass Details

Date: 24 November 2019
Orbit: 652 x 3832 km, 34.3° (Epoch: 09 December)

Event Time Altitude Azimuth Distance (km) Brightness Sun altitude
Rises 12:39:33 0° 280° (W) 5,773 13.8 -15.9°
Reaches altitude 10° 12:43:08 10° 288° (WNW) 5,148 13.4 -15.8°
Maximum altitude 12:57:38 39° 349° (NNW) 4,366 12.8 -15.2°
Drops below altitude 10° 13:17:33 10° 47° (NE) 6,938 14.2 -14.1°
Sets 13:23:29 0° 53° (NE) 7,902 14.5 -13.7°
